| time (UTC) | temp F | wind direction | speed MPH | gust MPH | rain 1hr in | rain 24hr in | rain mn in | humidity % | barometer mb |
| 20260505040844 | 68 | 275 | 5.0 | 9.0 | 0.00 | 0.00 | 0.00 | 41 | 1010.0 |
| 20260505035345 | 67 | 274 | 7.0 | 10.0 | 0.00 | 0.00 | 0.00 | 43 | 1010.2 |
| 20260505033845 | 68 | 279 | 5.0 | 9.0 | 0.00 | 0.00 | 0.00 | 44 | 1010.3 |
| 20260505032345 | 69 | 282 | 5.0 | 9.0 | 0.00 | 0.00 | 0.00 | 41 | 1010.3 |
| 20260505030845 | 71 | 311 | 4.0 | 8.0 | 0.00 | 0.00 | 0.00 | 40 | 1010.5 |
| 20260505025345 | 69 | 288 | 4.0 | 7.0 | 0.00 | 0.00 | 0.00 | 35 | 1010.6 |
| 20260505023845 | 68 | 286 | 4.0 | 6.0 | 0.00 | 0.02 | 0.00 | 35 | 1010.8 |
| 20260505022344 | 69 | 288 | 4.0 | 9.0 | 0.00 | 0.02 | 0.00 | 36 | 1010.9 |
| 20260505020844 | 68 | 301 | 4.0 | 6.0 | 0.00 | 0.02 | 0.00 | 41 | 1010.9 |
| 20260505015344 | 67 | 286 | 4.0 | 7.0 | 0.00 | 0.02 | 0.00 | 42 | 1011.0 |
| 20260505013844 | 67 | 288 | 4.0 | 7.0 | 0.00 | 0.02 | 0.00 | 42 | 1011.3 |
| 20260505012346 | 67 | 295 | 3.0 | 7.0 | 0.00 | 0.02 | 0.00 | 41 | 1011.2 |
| 20260505010846 | 66 | 264 | 4.0 | 6.0 | 0.00 | 0.02 | 0.00 | 42 | 1011.2 |
| 20260505005346 | 66 | 272 | 4.0 | 6.0 | 0.00 | 0.02 | 0.00 | 40 | 1011.2 |
| 20260505003846 | 66 | 254 | 3.0 | 6.0 | 0.00 | 0.02 | 0.00 | 38 | 1011.2 |
| 20260505002345 | 66 | 251 | 2.0 | 5.0 | 0.00 | 0.02 | 0.00 | 34 | 1011.2 |
| 20260505000845 | 67 | 238 | 1.0 | 3.0 | 0.00 | 0.02 | 0.00 | 32 | 1011.1 |
| 20260504235345 | 66 | 233 | 1.0 | 3.0 | 0.00 | 0.08 | 0.00 | 32 | 1011.2 |
| 20260504233845 | 65 | 128 | 1.0 | 3.0 | 0.00 | 0.08 | 0.00 | 32 | 1011.2 |
| 20260504232345 | 65 | 86 | 1.0 | 3.0 | 0.00 | 0.08 | 0.00 | 36 | 1011.3 |
| 20260504230845 | 63 | 115 | 1.0 | 4.0 | 0.00 | 0.08 | 0.00 | 41 | 1011.4 |
| 20260504225345 | 62 | 102 | 1.0 | 4.0 | 0.00 | 0.08 | 0.00 | 43 | 1011.2 |
| 20260504223844 | 59 | 115 | 2.0 | 3.0 | 0.00 | 0.08 | 0.00 | 48 | 1011.3 |
| 20260504222344 | 58 | 121 | 1.0 | 3.0 | 0.00 | 0.08 | 0.00 | 51 | 1011.2 |
| 20260504220844 | 56 | 89 | 3.0 | 5.0 | 0.00 | 0.08 | 0.00 | 54 | 1011.2 |
| 20260504215344 | 55 | 104 | 3.0 | 4.0 | 0.00 | 0.08 | 0.00 | 58 | 1011.0 |
| 20260504213844 | 53 | 101 | 3.0 | 6.0 | 0.00 | 0.08 | 0.00 | 65 | 1011.0 |
| 20260504212344 | 52 | 112 | 2.0 | 4.0 | 0.00 | 0.08 | 0.00 | 69 | 1010.9 |
| 20260504210846 | 52 | 121 | 2.0 | 5.0 | 0.00 | 0.08 | 0.00 | 70 | 1010.8 |
| 20260504205346 | 51 | 104 | 2.0 | 4.0 | 0.00 | 0.08 | 0.00 | 71 | 1010.3 |
| 20260504203846 | 51 | 104 | 1.0 | 3.0 | 0.00 | 0.08 | 0.00 | 72 | 1010.5 |
| 20260504202346 | 51 | 110 | 1.0 | 3.0 | 0.00 | 0.08 | 0.00 | 71 | 1010.4 |
| 20260504200845 | 51 | 101 | 2.0 | 4.0 | 0.00 | 0.08 | 0.00 | 71 | 1010.1 |
| 20260504195345 | 51 | 98 | 2.0 | 4.0 | 0.00 | 0.08 | 0.00 | 70 | 1010.3 |
| 20260504193845 | 52 | 111 | 2.0 | 4.0 | 0.00 | 0.08 | 0.00 | 70 | 1009.8 |
| 20260504192345 | 52 | 112 | 1.0 | 3.0 | 0.00 | 0.08 | 0.00 | 70 | 1009.6 |
| 20260504190845 | 52 | 113 | 1.0 | 3.0 | 0.00 | 0.08 | 0.00 | 70 | 1009.6 |
| 20260504185345 | 52 | 99 | 2.0 | 5.0 | 0.00 | 0.08 | 0.00 | 70 | 1009.7 |
| 20260504183845 | 52 | 110 | 1.0 | 3.0 | 0.00 | 0.08 | 0.00 | 70 | 1009.1 |
| 20260504182345 | 53 | 103 | 2.0 | 5.0 | 0.00 | 0.08 | 0.00 | 69 | 1008.9 |
| 20260504180845 | 53 | 110 | 2.0 | 5.0 | 0.00 | 0.08 | 0.00 | 68 | 1008.8 |
| 20260504175345 | 53 | 108 | 2.0 | 5.0 | 0.00 | 0.08 | 0.00 | 67 | 1008.8 |
| 20260504173844 | 53 | 104 | 2.0 | 5.0 | 0.00 | 0.08 | 0.00 | 66 | 1008.5 |
| 20260504172344 | 53 | 102 | 3.0 | 6.0 | 0.00 | 0.08 | 0.00 | 65 | 1008.5 |
| 20260504170844 | 53 | 96 | 3.0 | 5.0 | 0.00 | 0.08 | 0.00 | 65 | 1008.4 |
| 20260504150844 | 56 | 113 | 3.0 | 7.0 | 0.00 | 0.08 | 0.00 | 60 | 1008.2 |
| 20260504140845 | 58 | 97 | 2.0 | 6.0 | 0.00 | 0.08 | 0.08 | 53 | 1008.2 |
| 20260504080844 | 67 | 271 | 3.0 | 7.0 | 0.00 | 0.61 | 0.08 | 40 | 1003.6 |